Amritsar, India

4:17 PM IST on May 28, 2017 (GMT +0530)
Amritsar

Weather History for VIAR - November, 2012

Change the Weather History Date:

Tuesday, November 13, 2012

  Actual Average Record
Temperature  
Mean Temperature 65 °F -  
Max Temperature 83 °F 78 °F 84 °F (1998)
Min Temperature 47 °F 51 °F 44 °F (2003)
Growing Degree Days 15 (Base 50)    
Moisture  
Dew Point 57 °F    
Average Humidity 76    
Maximum Humidity 100    
Minimum Humidity 29    
Precipitation  
Precipitation 0.00 in - - ()
Sea Level Pressure  
Sea Level Pressure 30.03 in    
Wind  
Wind Speed 0 mph ()    
Max Wind Speed 6 mph    
Max Gust Speed -    
Visibility 1.1 miles    
Events Fog    
Averages and records for this station are not official NWS values.
T = Trace of Precipitation, MM = Missing Value Source: Averaged Metar Reports

Daily Weather History Graph

Daily Weather History Graph

Search for Another Location

Airport or City:

Trip Planner

Search our weather history database for the weather conditions in past years. The results will help you decide how hot, cold, wet, or windy it might be!

Date:

Astronomy

Nov. 13, 2012 Rise Set
Actual Time 6:56 AM IST 5:32 PM IST
Civil Twilight 6:31 AM IST 5:58 PM IST
Nautical Twilight 6:01 AM IST 6:27 PM IST
Astronomical Twilight 5:32 AM IST 6:56 PM IST
Moon 6:02 AM IST (11/13) 5:03 PM IST (11/13)
Length of Visible Light 11h 27m
Length of Day
10h 35m
Waning Crescent, 1% of the Moon is Illuminated
Nov 13
Waning Crescent
Nov 14
New
Nov 20
First Quarter
Nov 28
Full
Dec 6
Last Quarter

Hourly Weather History & Observations

Time (IST) Temp. Heat Index Dew Point Humidity Pressure Visibility Wind Dir Wind Speed Gust Speed Precip Events Conditions
12:00 AM 64.4 °F - 59.0 °F 83% 30.04 in 0.7 mi Calm Calm - N/A   Mist
12:30 AM 59.0 °F - 59.0 °F 100% 30.04 in 0.7 mi Calm Calm - N/A   Mist
1:00 AM 59.0 °F - 59.0 °F 100% 30.04 in 0.7 mi Calm Calm - N/A   Mist
1:30 AM 59.0 °F - 59.0 °F 100% 30.04 in 0.7 mi Calm Calm - N/A   Mist
2:00 AM 59.0 °F - 59.0 °F 100% 30.04 in 0.7 mi Calm Calm - N/A   Mist
2:30 AM 55 °F - 54 °F 97% 30.02 in 1 mi Calm Calm - -   Mist
2:30 AM 55.4 °F - 53.6 °F 94% 30.01 in 0.7 mi Calm Calm - N/A   Mist
3:30 AM 51.8 °F - 51.8 °F 100% 30.01 in 0.7 mi Calm Calm - N/A   Mist
4:00 AM 51.8 °F - 51.8 °F 100% 30.01 in 0.7 mi Calm Calm - N/A   Mist
4:30 AM 51.8 °F - 51.8 °F 100% 30.01 in 0.7 mi Calm Calm - N/A   Mist
5:00 AM 51.8 °F - 51.8 °F 100% 30.01 in 0.7 mi Calm Calm - N/A   Mist
5:30 AM 50 °F - 50 °F 100% 30.02 in 1 mi Calm Calm - -   Mist
5:30 AM 50.0 °F - 50.0 °F 100% 30.01 in 0.7 mi Calm Calm - N/A   Mist
6:30 AM 48.2 °F - 48.2 °F 100% 30.04 in 0.4 mi Calm Calm - N/A Fog Fog
7:30 AM 48.2 °F - 48.2 °F 100% 30.04 in 0.3 mi Calm Calm - N/A Fog Fog
8:00 AM 50.0 °F - 50.0 °F 100% 30.06 in 0.4 mi Calm Calm - N/A Fog Fog
8:30 AM 53 °F - 52 °F 96% 30.08 in 0 mi Calm Calm - - Fog Partial Fog
8:30 AM 53.6 °F - 51.8 °F 94% 30.06 in 0.4 mi Calm Calm - N/A Fog Fog
9:00 AM 55.4 °F - 53.6 °F 94% 30.09 in 0.4 mi Calm Calm - N/A Fog Fog
9:30 AM 59.0 °F - 57.2 °F 94% 30.09 in 0.6 mi Calm Calm - N/A Fog Shallow Fog
10:00 AM 62.6 °F - 57.2 °F 82% 30.09 in 0.7 mi Calm Calm - N/A   Mist
10:30 AM 64.4 °F - 57.2 °F 77% 30.09 in 1.1 mi Calm Calm - N/A   Mist
11:00 AM 68.0 °F - 60.8 °F 78% 30.09 in 1.2 mi Calm Calm - N/A   Haze
11:30 AM 71 °F - 57 °F 51% 30.09 in 1 mi Calm Calm - -   Haze
11:30 AM 69.8 °F - 57.2 °F 64% 30.09 in 1.6 mi Calm Calm - N/A   Haze
12:00 PM 73.4 °F - 57.2 °F 57% 30.09 in 1.6 mi Calm Calm - N/A   Haze
12:30 PM 75.2 °F - 57.2 °F 53% 30.06 in 1.6 mi Variable 2.3 mph - N/A   Haze
1:00 PM 78.8 °F - 59.0 °F 51% 30.06 in 1.6 mi Calm Calm - N/A   Smoke
1:30 PM 80.6 °F 80.8 °F 57.2 °F 45% 30.04 in 1.6 mi Variable 2.3 mph - N/A   Smoke
2:00 PM 80.6 °F 81.1 °F 59.0 °F 48% 30.04 in 1.6 mi Variable 2.3 mph - N/A   Smoke
2:30 PM 82 °F - 55 °F 29% 30.00 in 1 mi WSW 2.3 mph - -   Smoke
2:30 PM 82.4 °F 81.7 °F 55.4 °F 39% 30.04 in 1.6 mi Variable 3.5 mph - N/A   Smoke
3:00 PM 82.4 °F 81.7 °F 55.4 °F 39% 30.01 in - West 3.5 mph - N/A   Smoke
3:30 PM 82.4 °F 81.7 °F 55.4 °F 39% 30.01 in - WNW 4.6 mph - N/A   Smoke
4:00 PM 82.4 °F 81.7 °F 55.4 °F 39% 30.01 in 1.6 mi WNW 5.8 mph - N/A   Smoke
4:30 PM 82.4 °F 82.0 °F 57.2 °F 42% 30.01 in 1.6 mi Variable 2.3 mph - N/A   Smoke
5:00 PM 80.6 °F 80.8 °F 57.2 °F 45% 30.01 in 1.6 mi Calm Calm - N/A   Smoke
5:30 PM 80 °F - 58 °F 36% 29.97 in 3 mi Calm Calm - -   Smoke
5:30 PM 78.8 °F - 57.2 °F 47% 30.01 in 1.6 mi Calm Calm - N/A   Smoke
6:00 PM 77.0 °F - 59.0 °F 54% 30.01 in 1.6 mi Calm Calm - N/A   Smoke
6:30 PM 75.2 °F - 59.0 °F 57% 30.01 in 1.6 mi Calm Calm - N/A   Haze
7:00 PM 73.4 °F - 60.8 °F 65% 30.01 in 1.6 mi Calm Calm - N/A   Haze
7:30 PM 71.6 °F - 60.8 °F 69% 30.01 in 1.6 mi Calm Calm - N/A   Haze
8:00 PM 68.0 °F - 60.8 °F 78% 30.01 in 1.6 mi Calm Calm - N/A   Haze
8:30 PM 67 °F - 63 °F 81% 30.01 in 1 mi Calm Calm - -   Mist
8:30 PM 68.0 °F - 62.6 °F 83% 30.01 in 1.2 mi Calm Calm - N/A   Mist
9:00 PM 66.2 °F - 62.6 °F 88% 30.04 in 1.0 mi Calm Calm - N/A   Mist
9:30 PM 66.2 °F - 62.6 °F 88% 30.04 in 1.0 mi Calm Calm - N/A   Mist
10:30 PM 62.6 °F - 60.8 °F 94% 30.01 in 0.7 mi Calm Calm - N/A   Mist
11:00 PM 60.8 °F - 60.8 °F 100% 30.01 in 0.7 mi Calm Calm - N/A   Mist
11:30 PM 60.8 °F - 60.8 °F 100% 30.01 in 0.7 mi Calm Calm - N/A   Mist